This demonstration page uses our WeatherBlox Daily Observations layout. Learn more.

36.17497, -115.13722

Hourly Observations for September 9, 2019

Temp ( °F °C ) Dew Point ( °F °C ) Humidity (%) Winds ( mph kmh ) Pressure ( in mb ) Visibility ( mi km ) Precip ( " mm )
12:53 am 00:53 Clear 79 26.1 28 -2.2 15 15 Calm 29.74 1007 10 16.09344 0 0
1:53 am 01:53 Clear 76 24.4 26 -3.3 16 16 WNW 5 7 29.77 1008 10 16.09344 0 0
2:53 am 02:53 Clear 75 23.9 32 0 21 21 WNW 7 11 29.77 1008 10 16.09344 0 0
3:53 am 03:53 Clear 73 22.8 34 1.1 24 24 W 6 9 29.77 1008 10 16.09344 0 0
4:53 am 04:53 Clear 72 22.2 32 0 23 23 NNW 5 7 29.77 1008 10 16.09344 0 0
5:53 am 05:53 Clear 72 22.2 32 0 23 23 Calm 29.8 1009 10 16.09344 0 0
6:53 am 06:53 Sunny 70 21.1 32 0 25 25 NW 3 6 29.8 1009 10 16.09344 0 0
7:53 am 07:53 Sunny 74 23.3 29 -1.7 19 19 Calm 29.83 1010 10 16.09344 0 0
8:53 am 08:53 Sunny 79 26.1 28 -2.2 15 15 ESE 5 7 29.83 1010 10 16.09344 0 0
9:53 am 09:53 Sunny 83 28.3 29 -1.7 14 14 SE 9 15 29.83 1010 10 16.09344 0 0
10:53 am 10:53 Sunny 86 30 27 -2.8 12 12 ESE 10 17 29.83 1010 10 16.09344 0 0
11:53 am 11:53 Sunny 90 32.2 25 -3.9 9 9 SE 12 19 29.8 1009 10 16.09344 0 0
12:53 pm 12:53 Sunny 94 34.4 23 -5 8 8 SE 14 22 29.77 1008 10 16.09344 0 0
1:53 pm 13:53 Sunny 96 35.6 24 -4.4 7 7 S 13 20 29.74 1007 10 16.09344 0 0
2:53 pm 14:53 Sunny 97 36.1 23 -5 7 7 S 16 26 29.68 1005 10 16.09344 0 0
3:53 pm 15:53 Sunny 96 35.6 25 -3.9 8 8 S 18 30 29.65 1004 10 16.09344 0 0
4:53 pm 16:53 Sunny 94 34.4 28 -2.2 9 9 S 16 26 29.65 1004 10 16.09344 0 0
5:53 pm 17:53 Sunny 93 33.9 29 -1.7 10 10 S 17 28 29.65 1004 10 16.09344 0 0
6:53 pm 18:53 Sunny 91 32.8 29 -1.7 11 11 SW 17 28 29.65 1004 10 16.09344 0 0
7:53 pm 19:53 Clear 89 31.7 33 0.6 14 14 SSW 10 17 29.65 1004 10 16.09344 0 0
8:53 pm 20:53 Clear 87 30.6 40 4.4 19 19 SSE 5 7 29.65 1004 10 16.09344 0 0
9:53 pm 21:53 Clear 87 30.6 47 8.3 25 25 S 8 13 29.68 1005 10 16.09344 0 0
10:53 pm 22:53 Clear 86 30 49 9.4 28 28 S 14 22 29.65 1004 10 16.09344 0 0
11:53 pm 23:53 Clear 85 29.4 40 4.4 20 20 SSW 15 24 29.65 1004 10 16.09344 0 0

Powered by AerisWeather